Volver al catálogo

STARLINK-36137

ActivoComunicacionesVLEO
NORAD 67033·PAYLOAD·🇺🇸 United States

Lanzado Dec 11, 2025 desde Cape Canaveral Space Force Station

Loading…

Próximos Pases (próximas 24 horas)

TLE

ActualizadoSource: CelesTrak SupGP

Época: Sep 15, 2026, 04:10 UTC

1 67033C 25294D   26258.17409722 -.00013947  00000+0 -50500-3 0  2582
2 67033  43.0015  47.6378 0001605 272.1719  37.8485 15.27595504    19

Sigue STARLINK-36137 en tiempo real con AllMySat

Download on the App Store